• In Spain
  • List of Countries
  • For 7 days
  • Water Temperature
  • Satellite Maps
  • Weather Map
  • Weather Widgets
  • user-avatar
    Login

    Hourly Weather Fier

    Today, 16 October, Tuesday

    Time Temperature Precipitation Wind Pressure Humidity
    00:00 +18°C° 0 mm 2 mps 763 mmHg 68%
    01:00 +18°C° 0 mm 2 mps 763 mmHg 69%
    02:00 +18°C° 0 mm 2 mps 763 mmHg 70%
    03:00 +18°C° 0 mm 2 mps 763 mmHg 70%
    04:00 +17°C° 0 mm 2 mps 763 mmHg 70%
    05:00 +18°C° 0 mm 2 mps 763 mmHg 69%
    06:00 +18°C° 0 mm 2 mps 764 mmHg 68%
    07:00 +19°C° 0 mm 2 mps 764 mmHg 66%
    08:00 +21°C° 0 mm 2 mps 764 mmHg 59%
    09:00 +24°C° 0 mm 2 mps 764 mmHg 51%
    10:00 +26°C° 0 mm 1 mps 764 mmHg 44%
    11:00 +27°C° 0 mm 2 mps 764 mmHg 42%
    12:00 +28°C° 0 mm 2 mps 763 mmHg 40%
    13:00 +28°C° 0 mm 3 mps 763 mmHg 38%
    14:00 +28°C° 0 mm 3 mps 763 mmHg 41%
    15:00 +27°C° 0 mm 3 mps 763 mmHg 44%
    16:00 +26°C° 0 mm 3 mps 763 mmHg 47%
    17:00 +24°C° 0 mm 2 mps 763 mmHg 54%
    18:00 +23°C° 0 mm 2 mps 763 mmHg 61%
    19:00 +21°C° 0 mm 1 mps 763 mmHg 68%
    20:00 +21°C° 0 mm 1 mps 763 mmHg 68%
    21:00 +20°C° 0 mm 1 mps 763 mmHg 68%
    22:00 +19°C° 0 mm 2 mps 764 mmHg 68%
    23:00 +19°C° 0 mm 2 mps 763 mmHg 67%

    Tomorrow, 17 October, Wednesday

    Time Temperature Precipitation Wind Pressure Humidity
    00:00 +19°C° 0 mm 2 mps 763 mmHg 67%
    01:00 +18°C° 0 mm 2 mps 763 mmHg 66%
    02:00 +18°C° 0 mm 2 mps 763 mmHg 66%
    03:00 +18°C° 0 mm 2 mps 763 mmHg 66%
    04:00 +19°C° 0 mm 1 mps 762 mmHg 66%
    05:00 +18°C° 0 mm 2 mps 762 mmHg 65%
    06:00 +19°C° 0 mm 2 mps 762 mmHg 64%
    07:00 +19°C° 0 mm 2 mps 762 mmHg 62%
    08:00 +22°C° 0 mm 1 mps 762 mmHg 54%
    09:00 +25°C° 0 mm 1 mps 762 mmHg 46%
    10:00 +27°C° 0 mm 1 mps 762 mmHg 38%
    11:00 +28°C° 0 mm 1 mps 762 mmHg 36%
    12:00 +29°C° 0 mm 2 mps 761 mmHg 34%
    13:00 +29°C° 0 mm 2 mps 761 mmHg 32%
    14:00 +28°C° 0 mm 2 mps 761 mmHg 35%
    15:00 +28°C° 0 mm 2 mps 761 mmHg 39%
    16:00 +27°C° 0 mm 2 mps 760 mmHg 42%
    17:00 +25°C° 0 mm 2 mps 761 mmHg 49%
    18:00 +23°C° 0 mm 1 mps 761 mmHg 55%
    19:00 +21°C° 0 mm 1 mps 761 mmHg 61%
    20:00 +21°C° 0 mm 1 mps 761 mmHg 60%
    21:00 +21°C° 0 mm 1 mps 761 mmHg 59%
    22:00 +21°C° 0 mm 1 mps 761 mmHg 58%
    23:00 +20°C° 0 mm 1 mps 761 mmHg 58%

    Day after tomorrow, 18 October, Thursday

    Time Temperature Precipitation Wind Pressure Humidity
    00:00 +20°C° 0 mm 1 mps 761 mmHg 57%
    01:00 +20°C° 0 mm 1 mps 761 mmHg 56%
    02:00 +18°C° 0 mm 2 mps 761 mmHg 56%
    03:00 +18°C° 0 mm 2 mps 761 mmHg 56%
    04:00 +18°C° 0 mm 2 mps 760 mmHg 56%
    05:00 +18°C° 0 mm 2 mps 760 mmHg 56%
    06:00 +19°C° 0 mm 2 mps 760 mmHg 56%
    07:00 +19°C° 0 mm 2 mps 760 mmHg 55%
    08:00 +22°C° 0 mm 1 mps 760 mmHg 48%
    09:00 +25°C° 0 mm 1 mps 760 mmHg 41%
    10:00 +27°C° 0 mm 1 mps 760 mmHg 34%
    11:00 +28°C° 0 mm 1 mps 760 mmHg 32%
    12:00 +29°C° 0 mm 2 mps 760 mmHg 30%
    13:00 +29°C° 0 mm 2 mps 760 mmHg 29%
    14:00 +29°C° 0 mm 2 mps 759 mmHg 32%
    15:00 +28°C° 0 mm 2 mps 759 mmHg 36%
    16:00 +27°C° 0 mm 2 mps 759 mmHg 40%
    17:00 +25°C° 0 mm 2 mps 759 mmHg 46%
    18:00 +23°C° 0 mm 1 mps 760 mmHg 52%
    19:00 +21°C° 0 mm 1 mps 760 mmHg 57%
    20:00 +21°C° 0 mm 1 mps 760 mmHg 57%
    21:00 +21°C° 0 mm 1 mps 761 mmHg 56%
    22:00 +21°C° 0 mm 1 mps 761 mmHg 55%
    23:00 +21°C° 0 mm 1 mps 761 mmHg 55%

    19 October, Friday

    Time Temperature Precipitation Wind Pressure Humidity
    00:00 +20°C° 0 mm 1 mps 761 mmHg 55%
    01:00 +20°C° 0 mm 1 mps 761 mmHg 55%
    02:00 +20°C° 0 mm 1 mps 761 mmHg 56%
    03:00 +19°C° 0 mm 2 mps 761 mmHg 56%
    04:00 +18°C° 0 mm 2 mps 761 mmHg 57%
    05:00 +19°C° 0 mm 2 mps 761 mmHg 56%
    06:00 +19°C° 0 mm 2 mps 761 mmHg 55%
    07:00 +20°C° 0 mm 2 mps 761 mmHg 55%
    08:00 +23°C° 0 mm 2 mps 761 mmHg 49%
    09:00 +25°C° 0 mm 1 mps 761 mmHg 42%
    10:00 +28°C° 0 mm 1 mps 761 mmHg 36%
    11:00 +28°C° 0 mm 2 mps 761 mmHg 34%
    12:00 +29°C° 0 mm 2 mps 761 mmHg 33%
    13:00 +29°C° 0 mm 3 mps 761 mmHg 31%
    14:00 +29°C° 0 mm 3 mps 761 mmHg 34%
    15:00 +28°C° 0 mm 4 mps 761 mmHg 37%
    16:00 +27°C° 0 mm 4 mps 760 mmHg 39%
    17:00 +25°C° 0 mm 3 mps 761 mmHg 43%
    18:00 +22°C° 0 mm 3 mps 761 mmHg 47%
    19:00 +21°C° 0 mm 2 mps 761 mmHg 51%
    20:00 +20°C° 0 mm 2 mps 762 mmHg 51%
    21:00 +20°C° 0 mm 2 mps 762 mmHg 51%
    22:00 +20°C° 0 mm 2 mps 762 mmHg 50%
    23:00 +20°C° 0 mm 2 mps 762 mmHg 51%

    20 October, Saturday

    Time Temperature Precipitation Wind Pressure Humidity
    00:00 +19°C° 0 mm 2 mps 762 mmHg 51%
    01:00 +19°C° 0 mm 2 mps 762 mmHg 51%
    02:00 +19°C° 0 mm 2 mps 762 mmHg 52%
    03:00 +19°C° 0 mm 2 mps 762 mmHg 52%
    04:00 +18°C° 0 mm 2 mps 762 mmHg 53%
    05:00 +19°C° 0 mm 2 mps 762 mmHg 53%
    06:00 +19°C° 0 mm 2 mps 762 mmHg 53%
    07:00 +19°C° 0 mm 2 mps 762 mmHg 53%
    08:00 +23°C° 0 mm 2 mps 762 mmHg 47%
    09:00 +25°C° 0 mm 2 mps 762 mmHg 41%
    10:00 +28°C° 0 mm 2 mps 762 mmHg 35%
    11:00 +28°C° 0 mm 3 mps 762 mmHg 34%
    12:00 +29°C° 0 mm 3 mps 762 mmHg 33%
    13:00 +29°C° 0 mm 4 mps 761 mmHg 31%
    14:00 +29°C° 0 mm 4 mps 761 mmHg 34%
    15:00 +28°C° 0 mm 4 mps 761 mmHg 37%
    16:00 +27°C° 0 mm 4 mps 761 mmHg 40%
    17:00 +25°C° 0 mm 4 mps 761 mmHg 46%
    18:00 +22°C° 0 mm 3 mps 761 mmHg 52%
    19:00 +20°C° 0 mm 3 mps 761 mmHg 58%
    20:00 +20°C° 0 mm 2 mps 762 mmHg 57%
    21:00 +20°C° 0 mm 2 mps 762 mmHg 57%
    22:00 +20°C° 0 mm 2 mps 762 mmHg 56%
    23:00 +19°C° 0 mm 2 mps 762 mmHg 55%

    21 October, Sunday

    Time Temperature Precipitation Wind Pressure Humidity
    00:00 +19°C° 0 mm 2 mps 762 mmHg 54%
    01:00 +19°C° 0 mm 2 mps 762 mmHg 54%
    02:00 +19°C° 0 mm 2 mps 762 mmHg 53%
    03:00 +18°C° 0 mm 2 mps 761 mmHg 52%
    04:00 +18°C° 0 mm 2 mps 761 mmHg 52%
    05:00 +18°C° 0 mm 2 mps 761 mmHg 51%
    06:00 +18°C° 0 mm 2 mps 761 mmHg 51%
    07:00 +19°C° 0 mm 2 mps 762 mmHg 50%
    08:00 +20°C° 0.1 mm 3 mps 762 mmHg 48%
    09:00 +22°C° 0.1 mm 3 mps 762 mmHg 45%
    10:00 +23°C° 0.1 mm 4 mps 761 mmHg 42%
    11:00 +22°C° 0.4 mm 4 mps 761 mmHg 49%
    12:00 +21°C° 0.4 mm 3 mps 761 mmHg 55%
    13:00 +20°C° 0.4 mm 3 mps 761 mmHg 62%
    14:00 +20°C° 0.1 mm 3 mps 761 mmHg 63%
    15:00 +19°C° 0.1 mm 2 mps 760 mmHg 63%
    16:00 +20°C° 0.1 mm 1 mps 760 mmHg 64%
    17:00 +18°C° 0 mm 2 mps 760 mmHg 67%
    18:00 +17°C° 0 mm 2 mps 760 mmHg 71%
    19:00 +16°C° 0 mm 3 mps 760 mmHg 74%
    20:00 +16°C° 0 mm 3 mps 760 mmHg 75%
    21:00 +16°C° 0 mm 3 mps 760 mmHg 75%
    22:00 +14°C° 0 mm 3 mps 760 mmHg 76%
    23:00 +14°C° 0.1 mm 3 mps 759 mmHg 76%
    Show more